Regional Weather Roundup
Issued by NWS

Home | Current Version | Previous Version | Graphics & Text | Print | Product List | Glossary On
Versions: 1 2 3 4 5 6 7 8 9 10 11 12 13 14 15 16 17 18 19 20 21 22 23 24 25 26 27 28 29 30 31 32 33 34 35 36 37 38 39 40 41 42 43 44 45 46 47 48 49 50
814
ASUS45 KBOU 020707
RWRCO

WEATHER ROUNDUP FOR COLORADO
NATIONAL WEATHER SERVICE DENVER/BOULDER CO
1200 AM MST FRI DEC 02 2016

NOTE: "FAIR" INDICATES FEW OR NO CLOUDS BELOW 12000 FEET WITH NO
SIGNIFICANT WEATHER AND/OR OBSTRUCTIONS TO VISIBILITY.

COZ001>005-013-030-031-020800-
...NORTHWEST COLORADO...

CITY           SKY/WX    TMP DP  RH WIND       PRES   REMARKS
CRAIG          CLOUDY    19  15  84 CALM      30.07R
HAYDEN         FAIR      19  16  86 CALM      30.04R
MEEKER         CLOUDY    22  19  89 E3        30.04R
MOUNT WERNER   NOT AVBL
STEAMBOAT SPGS CLOUDY    19  18  96 CALM      30.03R
WALDEN           N/A     18  12  79 E3        30.00S
$$

COZ006>008-011-020800-
...WEST CENTRAL VALLEYS...

CITY           SKY/WX    TMP DP  RH WIND       PRES   REMARKS
GRAND JUNCTION CLOUDY    29  22  75 CALM      30.04R
MONTROSE       CLOUDY    23  14  68 SE10      30.06R WCI  12
EAGLE          FLURRIES  23  19  85 E3        30.05R
RIFLE          CLOUDY    26  22  84 S3        30.05R
DELTA          NOT AVBL
NUCLA          CLOUDY    27  16  63 E9        30.04S WCI  17
$$

COZ017>023-064>068-020800-
...SOUTHWEST COLORADO...

CITY           SKY/WX    TMP DP  RH WIND       PRES   REMARKS
DURANGO        FAIR      21  15  78 N6        29.99R WCI  13
CORTEZ         FAIR      18  14  84 E3        30.01R
PAGOSA SPRINGS MOCLDY    16  14  91 CALM      29.99R
TELLURIDE      FAIR      16  13  89 CALM      29.97R
WOLF CREEK PAS FAIR       9   7  92 SW6       29.97S WCI  -1
$$

COZ009-010-012-014-032>034-037-058>063-020800-
...CENTRAL COLORADO...

CITY           SKY/WX    TMP DP  RH WIND       PRES   REMARKS
ASPEN          CLOUDY    15  11  83 S3        29.98R
BUENA VISTA    FAIR      11   5  77 W8        29.99R WCI  -1
COPPER MTN     MOCLDY    14   7  73 MISG      29.91S
BERTHOUD PASS  FAIR       3  -8  60 W10       29.89S WCI -12
COTTONWOOD PAS FAIR      19  10  68 CALM      29.95R
GUNNISON       CLOUDY    11   6  81 CALM      30.01R
KREMMLING      LGT SNOW  21  18  86 CALM      30.04R
LEADVILLE      FAIR       5   1  83 N5        29.94R WCI  -4
MONARCH PASS     N/A      9   5  85 SW14      30.02R WCI  -8
SALIDA         FAIR      21   5  49 N3        30.07R
SUNLIGHT       CLOUDY   N/A N/A N/A CALM      29.97S
WILKERSON PASS FAIR      12   5  73 SW5       29.95S WCI   4
$$

COZ069>075-020800-
...SAN LUIS VALLEY/SANGRE DE CRISTO MOUNTAINS...

CITY           SKY/WX    TMP DP  RH WIND       PRES   REMARKS
ALAMOSA        FAIR       7   3  84 CALM      29.99R
LA VETA PASS   FAIR      16   9  73 NE14      29.95S WCI   1
SAGUACHE       FAIR      12   7  79 N7        29.99R WCI   2
$$

COZ035-036-038>040-020800-
...NORTHERN COLORADO FRONT RANGE...

CITY           SKY/WX    TMP DP  RH WIND       PRES   REMARKS
DENVER INTL AP MOCLDY    24   9  52 SE8       30.01S WCI  15
DMNS CITY PARK   N/A     27  11  50 NW6G13    30.03S WCI  20
AURORA         CLOUDY    27  11  51 S8        30.02R WCI  19
FRONT RANGE AP MOCLDY    27  12  54 SE3       30.03S
ERIE MUNI ARPT CLOUDY    25  13  61 N3        30.04S
BOULDER MUN AP MOCLDY    27   9  46 CALM      30.04R
CENTENNIAL     CLOUDY    26  10  50 W5        30.01R WCI  20
BROOMFIELD     CLOUDY    28  10  47 N10       30.03R WCI  19
FORT COLLINS   FAIR      27   9  46 CALM      30.06R
LONGMONT       MOCLDY    24  11  58 N5        30.07R WCI  18
$$

COZ041-046-047-076>085-087-088-020800-
...PIKES PEAK/PALMER DIVIDE AND SOUTHERN FOOTHILLS...

CITY           SKY/WX    TMP DP  RH WIND       PRES   REMARKS
COLO. SPRINGS  FAIR      17   2  51 NE9       30.02S WCI   6
A. F. ACADEMY  FAIR      15   5  65 N9        30.01R WCI   3
SCHRIEVER AFB  NOT AVBL
ELLICOTT       FAIR       1   1 100 CALM      30.00F
FALCON         FAIR      13   3  64 CALM      30.01S
FORT CARSON    FAIR      15   3  58 NW8       30.00S WCI   5
LIMON          FAIR       9   5  84 CALM      30.04R
MONUMENT HILL  MOCLDY    16   7  67 CALM      30.01S
TRINIDAD       FAIR      17   5  59 W5        30.01R WCI  10
$$

COZ042>045-048>051-090-091-020800-
...NORTHEAST COLORADO...

CITY           SKY/WX    TMP DP  RH WIND       PRES   REMARKS
GREELEY ARPT   FAIR      15   8  73 N3        30.07R
AKRON          MOCLDY    24  15  68 NW7       30.05R WCI  16
BURLINGTON     CLOUDY    25  10  53 W8        30.06R WCI  16
WRAY           NOT AVBL
STERLING       FAIR      23  18  80 CALM      30.06S
HOLYOKE        FAIR      21  12  68 W7        30.08R WCI  13
FORT MORGAN    FAIR      22  13  68 W5        30.07S WCI  16
$$

COZ086-089-092>099-020800-
...SOUTHEAST COLORADO...

CITY           SKY/WX    TMP DP  RH WIND       PRES   REMARKS
PUEBLO         FAIR      19  11  70 CALM      30.04R
LA JUNTA       FAIR      20  11  68 E7        30.05R WCI  11
LAMAR          FAIR      13   7  77 SW3       30.06R
SPRINGFIELD      N/A     16   5  62 CALM      30.04R
$$




USA.gov is the U.S. government's official web portal to all federal, state and local government web resources and services.